Regional Weather Roundup
Issued by NWS

Home | Current Version | Previous Version | Text Only | Print | Product List | Glossary On
Versions: 1 2 3 4 5 6 7 8 9 10 11 12 13 14 15 16 17 18 19 20 21 22 23 24 25 26 27 28 29 30 31 32 33 34 35 36 37 38 39 40 41 42 43 44 45 46 47 48 49 50
737
ASUS46 KPQR 111010
RWROR

OREGON REGIONAL WEATHER ROUNDUP
NATIONAL WEATHER SERVICE PORTLAND OR
200 AM PST THU FEB 11 2016

NOTE: "FAIR" INDICATES FEW OR NO CLOUDS BELOW 12,000 FEET WITH
NO SIGNIFICANT WEATHER AND/OR OBSTRUCTIONS TO VISIBILITY.

ORZ001>013-111100-
NORTHWEST OREGON


CITY           SKY/WX    TMP DP  RH WIND       PRES   REMARKS
ASTORIA        CLOUDY    50  49  96 NE8       30.16F
NEWPORT        CLOUDY    54  52  94 E10       30.15F
PORTLAND       CLOUDY    49  45  86 S3        30.20F
VANCOUVER WA   CLOUDY    48  46  93 CALM      30.19F
SCAPPOOSE      CLOUDY    50  48  93 NW5       30.18F
HILLSBORO      CLOUDY    49  48  97 CALM      30.19F
AURORA         CLOUDY    52  48  86 N9        30.18F
MCMINNVILLE    CLOUDY    52  48  86 N7        30.18F
SALEM          CLOUDY    52  48  86 NW6       30.16F
CORVALLIS      CLOUDY    52  48  87 CALM      30.17F
EUGENE         CLOUDY    50  48  93 W5        30.18S
$$

ORZ021-028-111100-
SOUTHWEST OREGON


CITY           SKY/WX    TMP DP  RH WIND       PRES   REMARKS
NORTH BEND     CLOUDY    55  52  88 SE7       30.13S
BROOKINGS      MOCLDY    54  50  86 CALM      30.16R
ROSEBURG       PTCLDY    50  47  89 CALM      30.17S
SEXTON SUMMIT  MOCLDY    50  32  50 SE12      30.19S
MEDFORD        MOCLDY    47  42  83 S3        30.18F
$$

ORZ014>016-041-111100-
COLUMBIA GORGE


CITY           SKY/WX    TMP DP  RH WIND       PRES   REMARKS
TROUTDALE      CLOUDY    52  44  74 E9        30.18F
THE DALLES     CLOUDY    42  38  85 E3        30.28F
$$

ORZ029>031-041-044-049-050-061>064-502-503-505>511-111100-
EASTERN OREGON


CITY           SKY/WX    TMP DP  RH WIND       PRES   REMARKS
REDMOND        CLOUDY    40  34  79 CALM      30.23F
BEND           MOCLDY    41  34  75 CALM      30.24F
PRINEVILLE     MOCLDY    41  34  75 E3        30.25F
KLAMATH FALLS  PTCLDY    36  31  82 NE5       30.26S WCI  32
LAKEVIEW       CLEAR     30  25  80 NW7       30.30F WCI  23
HERMISTON      CLOUDY    41  37  86 N3        30.29R
PENDLETON      CLOUDY    43  35  73 E5        30.27F
JOHN DAY       CLOUDY    44  33  64 E9        30.29R
MEACHAM        MOCLDY    33  28  81 CALM      30.29F
LA GRANDE      CLOUDY    36  27  69 N6        30.33F WCI  31
BAKER CITY     MOCLDY    31  29  92 CALM      30.38S
BURNS          CLOUDY    26  24  92 E3        30.33F
ROME             N/A     30  28  92 NE3       30.34F
ONTARIO        CLOUDY    35  31  85 NE3       30.45S FOG
$$




USA.gov is the U.S. government's official web portal to all federal, state and local government web resources and services.